Location: Bemmer
(51.5498°N, 5.6249°E)
Time: 13:16:16
(UTC+00:00)

Cosmos 2263 Rocket - Pass Details

Date: 03 March 2021
Orbit: 825 x 847 km, 71.0° (Epoch: 10 April)

Event Time Altitude Azimuth Distance (km) Brightness Sun altitude
Rises 17:45:34 0° 327° (NNW) 3,376 5.8 -4.5°
Reaches altitude 10° 17:48:03 10° 323° (NW) 2,437 5.1 -4.9°
Maximum altitude 17:53:28 54° 248° (WSW) 999 3.1 -5.8°
Drops below altitude 10° 17:58:51 10° 172° (S) 2,423 4.5 -6.6°
Sets 18:01:19 0° 168° (SSE) 3,354 5.2 -7.0°
